Tracking 22458 objects as of 4-Mar-2021
HD Live streaming from Space Station
objects crossing your sky now

SL-6 R/B(2)

Track SL-6 R/B(2) now!
10-day predictions


NORAD ID: 16996
Int'l Code: 1986-075D
Perigee: 325.8 km
Apogee: 20,263.2 km
Inclination: 62.2 °
Period: 356.9 minutes
Semi major axis: 16665 km
RCS: 5.6254 m2 (large)
Launch date: October 3, 1986
Source: Commonwealth of Independent States (former USSR) (CIS)
Launch site: PLESETSK MISSILE AND SPACE COMPLEX (PKMTR)

Note: This is a ROCKET BODY
aabbcc
Your satellite tracking list
Your tracking list is empty




NASA's NSSDC Master Catalog

Two Line Element Set (TLE):
1 16996U 86075D   21062.70997219  .00000414  00000-0  91650-4 0  9996
2 16996  62.2325 251.2474 5981657 241.6429  46.3918  4.03529594507012
Source of the keplerian elements: AFSPC